• In Belgium
  • List of Countries
  • For 7 days
  • Water Temperature
  • Satellite Maps
  • Weather Map
  • Weather Widgets
  • user-avatar
    Login

    Hourly Weather Ath

    Today, 13 December, Wednesday

    Time Temperature Precipitation Wind Pressure Humidity
    00:00 -1°C° 0 mm 6 mps 756 mmHg 88%
    01:00 -1°C° 0 mm 6 mps 755 mmHg 87%
    02:00 -1°C° 0 mm 7 mps 754 mmHg 87%
    03:00 0°C° 0 mm 8 mps 753 mmHg 86%
    04:00 0°C° 0.3 mm 8 mps 752 mmHg 86%
    05:00 +1°C° 0.3 mm 9 mps 751 mmHg 86%
    06:00 +1°C° 0.3 mm 10 mps 751 mmHg 86%
    07:00 +2°C° 0.8 mm 9 mps 750 mmHg 86%
    08:00 +2°C° 0.8 mm 9 mps 750 mmHg 87%
    09:00 +3°C° 0.8 mm 9 mps 749 mmHg 88%
    10:00 +4°C° 0.8 mm 8 mps 749 mmHg 89%
    11:00 +4°C° 0.8 mm 7 mps 748 mmHg 90%
    12:00 +5°C° 0.8 mm 6 mps 748 mmHg 91%
    13:00 +5°C° 0.6 mm 6 mps 747 mmHg 91%
    14:00 +5°C° 0.6 mm 6 mps 746 mmHg 91%
    15:00 +5°C° 0.6 mm 6 mps 745 mmHg 91%
    16:00 +6°C° 1.3 mm 8 mps 744 mmHg 89%
    17:00 +6°C° 1.3 mm 9 mps 743 mmHg 88%
    18:00 +6°C° 1.3 mm 10 mps 742 mmHg 87%
    19:00 +6°C° 2 mm 9 mps 742 mmHg 83%
    20:00 +5°C° 2 mm 8 mps 742 mmHg 79%
    21:00 +5°C° 2 mm 7 mps 742 mmHg 76%
    22:00 +4°C° 0.5 mm 8 mps 742 mmHg 76%
    23:00 +3°C° 0.5 mm 9 mps 742 mmHg 75%

    Tomorrow, 14 December, Thursday

    Time Temperature Precipitation Wind Pressure Humidity
    00:00 +2°C° 0.5 mm 10 mps 742 mmHg 75%
    01:00 +2°C° 0.3 mm 9 mps 743 mmHg 71%
    02:00 +1°C° 0.3 mm 9 mps 743 mmHg 67%
    03:00 +1°C° 0.3 mm 9 mps 744 mmHg 63%
    04:00 +1°C° 0 mm 8 mps 745 mmHg 66%
    05:00 +2°C° 0 mm 7 mps 745 mmHg 68%
    06:00 +2°C° 0 mm 7 mps 746 mmHg 71%
    07:00 +2°C° 0.3 mm 7 mps 746 mmHg 73%
    08:00 +2°C° 0.3 mm 7 mps 746 mmHg 75%
    09:00 +2°C° 0.3 mm 7 mps 746 mmHg 77%
    10:00 +3°C° 0.3 mm 7 mps 745 mmHg 75%
    11:00 +4°C° 0.3 mm 7 mps 745 mmHg 74%
    12:00 +4°C° 0.3 mm 7 mps 744 mmHg 72%
    13:00 +4°C° 0.4 mm 6 mps 744 mmHg 76%
    14:00 +3°C° 0.4 mm 6 mps 743 mmHg 79%
    15:00 +3°C° 0.4 mm 5 mps 742 mmHg 83%
    16:00 +3°C° 1.1 mm 5 mps 741 mmHg 85%
    17:00 +3°C° 1.1 mm 5 mps 740 mmHg 87%
    18:00 +3°C° 1.1 mm 5 mps 740 mmHg 89%
    19:00 +2°C° 0.3 mm 5 mps 740 mmHg 86%
    20:00 +3°C° 0.3 mm 4 mps 740 mmHg 83%
    21:00 +3°C° 0.3 mm 4 mps 740 mmHg 80%
    22:00 +3°C° 0 mm 4 mps 741 mmHg 80%
    23:00 +1°C° 0 mm 4 mps 741 mmHg 80%

    Day after tomorrow, 15 December, Friday

    Time Temperature Precipitation Wind Pressure Humidity
    00:00 +1°C° 0 mm 4 mps 742 mmHg 79%
    01:00 0°C° 0 mm 5 mps 742 mmHg 80%
    02:00 0°C° 0 mm 5 mps 742 mmHg 81%
    03:00 0°C° 0 mm 5 mps 742 mmHg 82%
    04:00 +1°C° 0.6 mm 5 mps 741 mmHg 83%
    05:00 +1°C° 0.6 mm 6 mps 741 mmHg 83%
    06:00 +1°C° 0.6 mm 6 mps 741 mmHg 84%
    07:00 +2°C° 0.8 mm 6 mps 741 mmHg 85%
    08:00 +2°C° 0.8 mm 6 mps 741 mmHg 87%
    09:00 +2°C° 0.8 mm 6 mps 741 mmHg 88%
    10:00 +3°C° 0.1 mm 5 mps 742 mmHg 85%
    11:00 +3°C° 0.1 mm 5 mps 742 mmHg 82%
    12:00 +5°C° 0.1 mm 5 mps 742 mmHg 79%
    13:00 +4°C° 0.1 mm 4 mps 743 mmHg 81%
    14:00 +4°C° 0.1 mm 3 mps 743 mmHg 83%
    15:00 +4°C° 0.1 mm 3 mps 744 mmHg 85%
    16:00 +3°C° 0 mm 3 mps 745 mmHg 86%
    17:00 +3°C° 0 mm 3 mps 746 mmHg 88%
    18:00 +2°C° 0 mm 3 mps 747 mmHg 90%
    19:00 +2°C° 0 mm 3 mps 748 mmHg 89%
    20:00 +2°C° 0 mm 3 mps 749 mmHg 89%
    21:00 +2°C° 0 mm 3 mps 750 mmHg 89%
    22:00 +2°C° 0.1 mm 3 mps 751 mmHg 88%
    23:00 +1°C° 0.1 mm 4 mps 751 mmHg 87%

    16 December, Saturday

    Time Temperature Precipitation Wind Pressure Humidity
    00:00 +1°C° 0.1 mm 4 mps 752 mmHg 86%
    01:00 +1°C° 0.1 mm 4 mps 753 mmHg 87%
    02:00 +1°C° 0.1 mm 4 mps 753 mmHg 87%
    03:00 +1°C° 0.1 mm 4 mps 753 mmHg 88%
    04:00 0°C° 0.1 mm 4 mps 754 mmHg 88%
    05:00 0°C° 0.1 mm 4 mps 754 mmHg 88%
    06:00 0°C° 0.1 mm 4 mps 755 mmHg 88%
    07:00 0°C° 0.1 mm 4 mps 756 mmHg 87%
    08:00 0°C° 0.1 mm 4 mps 756 mmHg 86%
    09:00 +1°C° 0.1 mm 4 mps 757 mmHg 85%
    10:00 +1°C° 0.1 mm 4 mps 757 mmHg 82%
    11:00 +2°C° 0.1 mm 5 mps 757 mmHg 79%
    12:00 +2°C° 0.1 mm 5 mps 758 mmHg 75%
    13:00 +2°C° 0.1 mm 5 mps 758 mmHg 77%
    14:00 +3°C° 0.1 mm 4 mps 758 mmHg 78%
    15:00 +3°C° 0.1 mm 4 mps 759 mmHg 79%
    16:00 +1°C° 0 mm 4 mps 759 mmHg 81%
    17:00 +1°C° 0 mm 3 mps 760 mmHg 83%
    18:00 +1°C° 0 mm 3 mps 760 mmHg 85%
    19:00 0°C° 0 mm 3 mps 761 mmHg 85%
    20:00 0°C° 0 mm 3 mps 761 mmHg 85%
    21:00 +1°C° 0 mm 2 mps 762 mmHg 85%
    22:00 +1°C° 0 mm 2 mps 762 mmHg 86%
    23:00 +1°C° 0 mm 2 mps 763 mmHg 86%

    17 December, Sunday

    Time Temperature Precipitation Wind Pressure Humidity
    00:00 +1°C° 0 mm 2 mps 763 mmHg 86%
    01:00 +1°C° 0 mm 2 mps 763 mmHg 87%
    02:00 +1°C° 0 mm 2 mps 764 mmHg 87%
    03:00 +1°C° 0 mm 2 mps 764 mmHg 88%
    04:00 +1°C° 0 mm 2 mps 764 mmHg 89%
    05:00 +1°C° 0 mm 2 mps 765 mmHg 89%
    06:00 +1°C° 0 mm 2 mps 765 mmHg 90%
    07:00 +1°C° 0 mm 2 mps 766 mmHg 89%
    08:00 +1°C° 0 mm 2 mps 766 mmHg 88%
    09:00 +2°C° 0 mm 2 mps 767 mmHg 87%
    10:00 +3°C° 0 mm 2 mps 767 mmHg 83%
    11:00 +4°C° 0 mm 2 mps 767 mmHg 80%
    12:00 +5°C° 0 mm 2 mps 768 mmHg 77%
    13:00 +4°C° 0 mm 2 mps 768 mmHg 80%
    14:00 +4°C° 0 mm 2 mps 768 mmHg 82%
    15:00 +3°C° 0 mm 2 mps 768 mmHg 85%
    16:00 +3°C° 0 mm 2 mps 768 mmHg 87%
    17:00 +2°C° 0 mm 2 mps 769 mmHg 88%
    18:00 +1°C° 0 mm 2 mps 769 mmHg 90%
    19:00 +1°C° 0 mm 2 mps 770 mmHg 90%
    20:00 +1°C° 0 mm 2 mps 770 mmHg 91%
    21:00 0°C° 0 mm 3 mps 770 mmHg 91%
    22:00 -1°C° 0 mm 3 mps 770 mmHg 91%
    23:00 -1°C° 0 mm 3 mps 770 mmHg 91%

    18 December, Monday

    Time Temperature Precipitation Wind Pressure Humidity
    00:00 -1°C° 0 mm 3 mps 770 mmHg 90%
    01:00 -2°C° 0 mm 4 mps 770 mmHg 90%
    02:00 -1°C° 0 mm 4 mps 769 mmHg 90%
    03:00 -1°C° 0 mm 4 mps 769 mmHg 90%
    04:00 -1°C° 0.1 mm 5 mps 769 mmHg 89%
    05:00 0°C° 0.1 mm 5 mps 768 mmHg 88%
    06:00 -1°C° 0.1 mm 6 mps 768 mmHg 87%
    07:00 -1°C° 0.4 mm 6 mps 768 mmHg 88%
    08:00 +1°C° 0.4 mm 6 mps 767 mmHg 89%
    09:00 0°C° 0.4 mm 7 mps 767 mmHg 89%
    10:00 +1°C° 0.4 mm 6 mps 767 mmHg 91%
    11:00 +2°C° 0.4 mm 6 mps 766 mmHg 92%
    12:00 +3°C° 0.4 mm 6 mps 766 mmHg 93%
    13:00 +3°C° 0.2 mm 5 mps 766 mmHg 94%
    14:00 +5°C° 0.2 mm 4 mps 765 mmHg 95%
    15:00 +5°C° 0.2 mm 3 mps 765 mmHg 96%
    16:00 +5°C° 0 mm 3 mps 765 mmHg 96%
    17:00 +5°C° 0 mm 3 mps 766 mmHg 97%
    18:00 +7°C° 0 mm 3 mps 766 mmHg 97%
    19:00 +5°C° 0 mm 3 mps 767 mmHg 96%
    20:00 +5°C° 0 mm 3 mps 767 mmHg 96%
    21:00 +5°C° 0 mm 2 mps 768 mmHg 95%
    22:00 +5°C° 0 mm 2 mps 768 mmHg 95%
    23:00 +4°C° 0 mm 2 mps 768 mmHg 94%
    Show more